Weather observations for the past three days for
Minneapolis, Minneapolis-St. Paul International Airport
Metric (Imperial)
Date Time (cdt) Wind (kph) Vis. (km) Weather Sky Cond. Temperature (ºC) Relative Humidity Wind Chill (°C) Heat Index (°C) Pressure Precipitation (cm)
Air Dwpt 6 hour altimeter (cm) sea level (mb) 1 hr 3 hr 6 hr
Max. Min.
27 22:53 NW 11 16.09 Overcast BKN030 OVC080 14.4 13.3 93% 75.97 1013.1
27 21:53 NW 6 16.09 Mostly Cloudy BKN065 BKN100 13.9 12.8 93% 75.95 1012.5
27 20:53 W 6 16.09 Mostly Cloudy SCT070 BKN090 BKN250 14.4 12.2 87% 75.9 1011.8
27 19:53 W 9 16.09 Mostly Cloudy SCT060 BKN080 BKN250 15 12.2 83% 75.84 1011.0
27 18:53 SW 13 16.09 Mostly Cloudy FEW050 SCT120 BKN250 15 12.2 19.4 11.7 83% 75.77 1010.3 1.12
27 17:53 Calm 16.09 Light Rain FEW040 BKN070 OVC085 13.3 10 81% 75.74 1010.0 0.25
27 16:53 N 13 6.44 Thunderstorm in Vicinity Rain SCT035CB BKN050 OVC070 13.3 8.9 75% 75.72 1009.8 0.81
27 15:53 W 19 G 35 8.05 Thunderstorm Haze BKN029 BKN035CB OVC050 16.7 8.3 58% 75.69 1009.1 0.05 0.05
27 14:53 E 13 16.09 Light Rain FEW024 SCT031 SCT060 BKN250 17.8 12.2 70% 75.67 1008.6
27 13:53 SE 6 16.09 Mostly Cloudy FEW020 FEW050 BKN250 18.3 13.3 73% 75.64 1008.6
27 12:53 Calm 16.09 Mostly Cloudy FEW040 BKN070 BKN090 16.7 13.9 16.7 12.8 84% 75.72 1009.6 0.1
27 11:53 Calm 16.09 Overcast FEW040 OVC070 15 12.2 83% 75.74 1009.8 0.05
27 10:53 NW 7 9.66 Rain Fog/Mist FEW060 OVC080 14.4 12.2 87% 75.72 1009.5 0.05
27 09:53 NW 13 16.09 Overcast BKN030 OVC090 15.6 12.2 80% 75.67 1008.8
27 08:53 NW 13 16.09 Light Rain FEW060 OVC085 14.4 11.1 81% 75.67 1008.7
27 07:53 Calm 16.09 Mostly Cloudy BKN100 BKN220 14.4 10.6 78% 75.64 1008.2
27 06:53 Calm 14.48 Mostly Cloudy BKN085 BKN220 12.8 10 12.8 11.1 83% 75.64 1008.2
27 05:53 Calm 14.48 Patches Fog FEW130 SCT220 11.7 9.4 86% 75.59 1007.6
27 04:53 Calm 14.48 A Few Clouds FEW220 11.7 8.9 83% 75.59 1007.6
27 03:53 Calm 16.09 Fair CLR 11.7 8.9 83% 75.57 1007.5
27 02:53 Calm 16.09 Fair CLR 11.7 8.9 83% 75.57 1007.4
27 01:53 Calm 16.09 Fair CLR 12.2 9.4 83% 75.57 1007.3
27 00:53 Calm 16.09 Fair CLR 12.2 9.4 20 11.7 83% 75.54 1007.2
26 23:53 W 6 16.09 A Few Clouds FEW250 13.3 8.9 75% 75.57 1007.3
26 22:53 Calm 16.09 A Few Clouds FEW250 14.4 8.3 67% 75.54 1007.1
26 21:53 E 7 16.09 A Few Clouds FEW250 15.6 8.3 62% 75.54 1007.1
26 20:53 E 9 16.09 Partly Cloudy SCT250 16.7 8.3 58% 75.46 1005.9
26 19:53 E 26 G 48 16.09 Partly Cloudy SCT250 18.9 7.8 49% 75.44 1005.3
26 18:53 NE 17 16.09 Partly Cloudy FEW050 SCT250 20 7.2 20.6 15 44% 75.39 1004.9
26 17:53 NE 17 G 37 16.09 Mostly Cloudy SCT046 BKN250 20.6 7.8 44% 75.39 1004.9
26 16:53 E 13 16.09 Overcast SCT046 BKN055 OVC085 18.3 10 59% 75.39 1004.9
26 15:53 NE 7 16.09 Overcast SCT048 OVC060 18.3 11.1 63% 75.39 1005.0
26 14:53 N 9 16.09 Overcast OVC060 17.8 11.7 68% 75.39 1004.8
26 13:53 NE 11 16.09 Overcast OVC055 16.7 12.2 75% 75.36 1004.5
26 12:53 NE 11 16.09 Overcast FEW022 FEW029 OVC043 15 12.2 17.2 14.4 83% 75.36 1004.7 0.08
26 11:53 NE 17 16.09 Overcast SCT029 OVC038 16.7 12.2 75% 75.39 1004.8
26 10:53 NE 13 16.09 Overcast SCT029 BKN038 OVC070 15.6 11.7 78% 75.41 1005.2
26 09:53 E 11 14.48 Overcast OVC065 15 11.1 78% 75.44 1005.5 0.08 0.08
26 08:53 SE 20 6.44 Rain SCT043 BKN050 OVC100 15.6 11.1 75% 75.44 1005.6
26 07:53 E 11 16.09 Overcast OVC037 17.2 10 63% 75.36 1004.6
26 06:53 SE 13 16.09 Overcast OVC140 16.7 10 17.8 15.6 65% 75.34 1004.2
26 05:53 E 15 16.09 Overcast OVC110 15.6 10 70% 75.36 1004.4
26 04:53 E 15 16.09 Mostly Cloudy BKN120 16.7 9.4 62% 75.36 1004.3
26 03:53 E 9 16.09 Mostly Cloudy FEW150 BKN250 16.1 9.4 65% 75.41 1005.1
26 02:53 E 11 16.09 Overcast OVC150 16.7 10 65% 75.41 1005.1
26 01:53 SE 13 16.09 Mostly Cloudy BKN140 17.2 9.4 60% 75.46 1005.7
26 00:53 E 11 16.09 Mostly Cloudy BKN130 17.2 10.6 20.6 16.7 65% 75.54 1006.7
25 23:53 SE 13 16.09 Partly Cloudy SCT130 SCT160 17.8 10.6 63% 75.54 1006.9
25 22:53 E 7 16.09 Partly Cloudy SCT150 SCT250 17.8 10 60% 75.54 1006.7
25 21:53 SE 7 16.09 Mostly Cloudy FEW080 BKN150 BKN180 BKN250 18.9 10 56% 75.59 1007.4
25 20:53 S 7 16.09 Mostly Cloudy FEW065 SCT150 BKN200 BKN250 19.4 9.4 53% 75.54 1006.8
25 19:53 S 13 16.09 Mostly Cloudy FEW065 SCT140 BKN200 BKN250 20.6 8.9 47% 75.54 1006.8
25 18:53 SW 13 16.09 Mostly Cloudy FEW060 SCT130 BKN180 BKN250 20 9.4 23.9 20 51% 75.54 1006.9
25 17:53 S 19 G 33 16.09 Overcast SCT055 SCT100 BKN120 OVC250 20.6 8.9 47% 75.51 1006.7
25 16:53 SW 33 G 63 16.09 Overcast and Breezy FEW055 BKN130 OVC240 22.2 8.9 43% 75.59 1007.5
25 15:53 SW 20 G 48 16.09 Overcast FEW060 BKN140 BKN200 OVC250 22.8 8.3 40% 75.57 1007.2
25 14:53 SW 30 G 59 16.09 Mostly Cloudy FEW060 FEW150 BKN250 22.8 7.2 37% 75.57 1007.2
25 13:53 SW 33 G 56 16.09 Mostly Cloudy and Breezy FEW060 SCT120 BKN250 23.9 8.3 37% 25 75.59 1007.6
25 12:53 SW 28 G 44 16.09 Mostly Cloudy FEW060 SCT150 BKN250 22.2 7.8 22.2 11.1 40% 75.62 1007.9
25 11:53 SW 26 G 57 16.09 Partly Cloudy FEW060 SCT250 21.1 7.2 41% 75.62 1008.2
25 10:53 SW 19 16.09 Fair CLR 19.4 7.2 45% 75.62 1008.1
25 09:53 SW 15 G 33 16.09 A Few Clouds FEW200 17.8 7.2 50% 75.64 1008.5
25 08:53 SW 15 16.09 A Few Clouds FEW200 15.6 7.2 58% 75.67 1008.9
25 07:53 SW 15 16.09 A Few Clouds FEW200 13.3 6.7 65% 75.64 1008.6
25 06:53 SW 17 16.09 Fair CLR 11.1 6.1 11.1 8.9 72% 75.67 1008.8
25 05:53 SW 19 16.09 Fair CLR 10 6.1 77% 8 75.62 1008.2
25 04:53 SW 13 16.09 Fair CLR 9.4 5.6 77% 8 75.59 1007.8
25 03:53 SW 15 16.09 Fair CLR 9.4 5 74% 7 75.57 1007.5
25 02:53 SW 13 16.09 Fair CLR 9.4 4.4 71% 8 75.57 1007.5
25 01:53 SW 7 16.09 Fair CLR 9.4 4.4 71% 9 75.59 1007.6
25 00:53 SW 13 16.09 Fair CLR 10 4.4 15.6 10 68% 8 75.62 1007.9
24 23:53 SW 11 16.09 Fair CLR 10 3.9 66% 9 75.62 1008.0
Date Time (cdt) Wind (kph) Vis. (km) Weather Sky Cond. Air Dwpt Max. Min. Relative Humidity Wind Chill (°C) Heat Index (°C) altimeter (cm) sea level (mb) 1 hr 3 hr 6 hr
6 hour
Temperature (ºC) Pressure Precipitation (cm)